Home > Time Zones > World Clock > Weather > Sweden > Lund > Past weeks

Flag for Sweden Weather past 2 weeks in Lund, Sweden

Now
45 °F

Partly sunny.


Feels Like: 36 °F
Forecast: 36 / 44 °F
Wind: 23 mph from Northwest

Location: Malmo / Sturup

Current Time: Mar 30, 2015 at 4:28:35 PM

Latest Report: Mar 30, 2015 at 3:50 PM


Visibility: N/A

Pressure: 29.09 "Hg

Humidity: 76%

Dew point: 37 °F

Location of LundLocation

Historic Weather in Lund — Graph

°F

Lund temperature yesterday

Maximum temperature yesterday: 48 °F (at 12:20 PM)
Minimum temperature yesterday: 39 °F (at 12:50 AM)
Average temperature yesterday: 44 °F

Past Weeks' High & Low Weather Summary

 TemperatureHumidityPressure
High52 °F (Mar 17, 2:20 PM)100% (Mar 20, 6:20 PM)30.66 "Hg (Mar 20, 6:20 PM)
Low19 °F (Mar 22, 6:20 AM)28% (Mar 19, 3:50 PM)28.82 "Hg (Mar 30, 3:20 AM)
Average40 °F79%30.03 "Hg
* Reported Mar 15 2:20 PM — Mar 30 3:20 PM, Lund, Weather by CustomWeather, © 2015

Note: Actual official high and low records may vary slightly from our data, if they occured in-between our weather recording intervals... More about our weather records

Advertising

Lund weather history for previous 24 hours

 ConditionsComfort  
Time TempWeatherWind HumidityBarometerVisibility
3:20 PM
Mon, Mar 30
43 °FPartly sunny.22 mph81%29.09 "HgN/A
2:50 PM43 °FPartly sunny.24 mph81%29.06 "HgN/A
2:20 PM43 °FPartly sunny.25 mph81%29.06 "HgN/A
1:50 PM43 °FPartly sunny.25 mph81%29.03 "HgN/A
1:20 PM43 °FPartly sunny.24 mph87%29.03 "HgN/A
12:50 PM41 °FFog.24 mph93%29.00 "Hg6 mi
12:20 PM41 °FLight rain. Broken clouds.21 mph93%29.00 "Hg5 mi
11:50 AM39 °FLight rain. Mostly cloudy.24 mph93%28.97 "Hg4 mi
11:20 AM39 °FDrizzle. Partly sunny.22 mph100%28.97 "Hg6 mi
10:50 AM39 °FDrizzle. Partly sunny.26 mph93%28.94 "Hg6 mi
10:20 AM39 °FLight rain. Partly sunny.23 mph93%28.94 "Hg6 mi
9:50 AM39 °FLight rain. Low clouds.25 mph93%28.91 "Hg5 mi
9:20 AM39 °FLight rain. Low clouds.22 mph100%28.91 "Hg4 mi
8:50 AM39 °FLight rain. Fog.20 mph93%28.91 "Hg5 mi
8:20 AM39 °FLight rain. Fog.20 mph100%28.88 "Hg5 mi
7:50 AM39 °FLight rain. Fog.15 mph100%28.88 "Hg5 mi
7:20 AM39 °FLight rain. Fog.17 mph93%28.88 "Hg5 mi
6:50 AM37 °FLight rain. Mostly cloudy.14 mph93%28.88 "Hg5 mi
6:20 AM36 °FRain. Low clouds.18 mph100%28.88 "Hg5 mi
5:50 AM37 °FRain. Mostly cloudy.23 mph93%28.85 "Hg5 mi
5:20 AM39 °FRain. Partly cloudy.23 mph93%28.85 "Hg4 mi
4:50 AM41 °FRain. Passing clouds.18 mph100%28.82 "Hg5 mi
4:20 AM41 °FRain. Mostly cloudy.12 mph100%28.82 "Hg4 mi
3:50 AM41 °FRain. Mostly cloudy.6 mph100%28.82 "Hg4 mi
3:20 AM41 °FRain. Passing clouds.6 mph100%28.82 "Hg5 mi
2:50 AM41 °FRain. Partly cloudy.8 mph100%28.85 "Hg5 mi
2:20 AM41 °FRain. Passing clouds.10 mph100%28.85 "Hg5 mi
1:50 AM41 °FRain. Low clouds.9 mph100%28.88 "Hg4 mi
1:20 AM41 °FLight rain. Low clouds.9 mph100%28.91 "Hg4 mi
12:50 AM41 °FLight rain. Passing clouds.8 mph100%28.94 "Hg4 mi
12:20 AM43 °FLight rain. Low clouds.9 mph93%28.97 "Hg4 mi
11:50 PM
Sun, Mar 29
43 °FPassing clouds.13 mph93%28.97 "HgN/A
11:20 PM41 °FPassing clouds.9 mph100%29.00 "HgN/A
10:50 PM41 °FPassing clouds.10 mph100%29.03 "HgN/A
10:20 PM43 °FPassing clouds.12 mph93%29.06 "HgN/A
9:50 PM43 °FPassing clouds.12 mph93%29.09 "HgN/A
9:20 PM43 °FClear.12 mph93%29.09 "Hg10 mi
8:50 PM41 °FPassing clouds.9 mph93%29.12 "HgN/A
8:20 PM43 °FPassing clouds.10 mph87%29.12 "HgN/A
7:50 PM43 °FPassing clouds.12 mph93%29.15 "HgN/A
7:20 PM43 °FPassing clouds.12 mph93%29.15 "HgN/A
6:50 PM45 °FPassing clouds.12 mph87%29.18 "HgN/A
6:20 PM46 °FScattered clouds.13 mph82%29.18 "HgN/A
5:50 PM46 °FScattered clouds.15 mph87%29.21 "HgN/A
5:20 PM46 °FPartly sunny.17 mph87%29.21 "HgN/A
4:50 PM46 °FBroken clouds.14 mph93%29.21 "HgN/A
4:20 PM45 °FFog.14 mph100%29.24 "Hg4 mi
Weather by CustomWeather, © 2015

See weather overviewHow to use our weather pages